TimeCST,TemperatureF,Dew PointF,Humidity,Sea Level PressureIn,VisibilityMPH,Wind Direction,Wind SpeedMPH,Gust SpeedMPH,PrecipitationIn,Events,Conditions,WindDirDegrees,DateUTC
12:15 AM,50.0,37.4,62,30.21,10.0,East,17.3,21.9,N/A,,Overcast,100,2013-01-10 06:15:00
12:35 AM,48.2,39.2,71,30.18,10.0,East,16.1,25.3,N/A,,Scattered Clouds,90,2013-01-10 06:35:00
12:55 AM,48.2,39.2,71,30.17,10.0,East,15.0,21.9,N/A,,Mostly Cloudy,90,2013-01-10 06:55:00
1:15 AM,48.2,39.2,71,30.17,10.0,East,13.8,27.6,N/A,,Mostly Cloudy,100,2013-01-10 07:15:00
1:35 AM,48.2,39.2,71,30.16,10.0,East,18.4,23.0,N/A,,Scattered Clouds,90,2013-01-10 07:35:00
1:55 AM,48.2,39.2,71,30.16,10.0,East,18.4,24.2,N/A,,Mostly Cloudy,100,2013-01-10 07:55:00
2:15 AM,48.2,39.2,71,30.17,10.0,East,15.0,21.9,N/A,,Overcast,100,2013-01-10 08:15:00
2:35 AM,48.2,39.2,71,30.16,10.0,East,12.7,23.0,N/A,,Overcast,100,2013-01-10 08:35:00
3:15 AM,46.4,41.0,81,30.13,10.0,East,10.4,23.0,N/A,,Overcast,80,2013-01-10 09:15:00
3:35 AM,46.4,41.0,81,30.11,10.0,East,16.1,-,N/A,,Overcast,80,2013-01-10 09:35:00
4:15 AM,46.4,41.0,81,30.09,10.0,East,13.8,20.7,N/A,,Overcast,90,2013-01-10 10:15:00
4:35 AM,46.4,41.0,81,30.08,10.0,East,12.7,17.3,N/A,,Overcast,100,2013-01-10 10:35:00
4:55 AM,46.4,41.0,81,30.08,10.0,East,9.2,-,N/A,,Overcast,100,2013-01-10 10:55:00
5:15 AM,46.4,41.0,81,30.07,10.0,East,12.7,-,N/A,,Overcast,100,2013-01-10 11:15:00
5:35 AM,46.4,41.0,81,30.07,10.0,East,11.5,-,N/A,,Overcast,90,2013-01-10 11:35:00
5:55 AM,46.4,41.0,81,30.06,10.0,East,9.2,17.3,N/A,,Overcast,90,2013-01-10 11:55:00
6:15 AM,46.4,41.0,81,30.05,10.0,East,12.7,19.6,N/A,,Overcast,90,2013-01-10 12:15:00
6:35 AM,46.4,41.0,81,30.04,10.0,East,11.5,-,N/A,,Overcast,90,2013-01-10 12:35:00
6:55 AM,46.4,41.0,81,30.03,10.0,East,12.7,-,N/A,,Overcast,100,2013-01-10 12:55:00
7:55 AM,46.4,42.8,87,30.02,10.0,East,12.7,-,N/A,,Overcast,100,2013-01-10 13:55:00
8:35 AM,46.4,42.8,87,30.03,9.0,East,10.4,-,N/A,,Overcast,100,2013-01-10 14:35:00
8:55 AM,46.4,42.8,87,30.03,10.0,East,9.2,-,N/A,,Overcast,100,2013-01-10 14:55:00
9:55 AM,48.2,44.6,87,30.00,10.0,East,10.4,-,N/A,,Overcast,100,2013-01-10 15:55:00
10:15 AM,48.2,44.6,87,30.00,10.0,East,12.7,-,N/A,,Overcast,100,2013-01-10 16:15:00
10:35 AM,48.2,44.6,87,29.98,3.0,East,11.5,-,N/A,,Overcast,100,2013-01-10 16:35:00
11:15 AM,48.2,46.4,93,29.96,10.0,East,10.4,-,N/A,,Overcast,100,2013-01-10 17:15:00
11:35 AM,50.0,46.4,87,29.93,10.0,East,8.1,-,N/A,,Overcast,100,2013-01-10 17:35:00
11:55 AM,51.8,46.4,82,29.92,10.0,ESE,11.5,-,N/A,,Overcast,120,2013-01-10 17:55:00
12:15 PM,53.6,48.2,82,29.90,10.0,East,10.4,18.4,N/A,,Overcast,100,2013-01-10 18:15:00
12:35 PM,55.4,50.0,82,29.87,10.0,East,10.4,-,N/A,,Overcast,100,2013-01-10 18:35:00
1:35 PM,55.4,51.8,88,29.85,8.0,ESE,8.1,-,N/A,,Overcast,110,2013-01-10 19:35:00
1:55 PM,55.4,51.8,88,29.83,10.0,ESE,5.8,-,N/A,,Mostly Cloudy,110,2013-01-10 19:55:00
2:15 PM,55.4,51.8,88,29.82,10.0,ESE,6.9,-,N/A,,Mostly Cloudy,110,2013-01-10 20:15:00
2:35 PM,55.4,51.8,88,29.81,10.0,ESE,6.9,-,N/A,,Mostly Cloudy,110,2013-01-10 20:35:00
2:55 PM,57.2,53.6,88,29.81,8.0,SE,9.2,-,N/A,,Overcast,130,2013-01-10 20:55:00
3:15 PM,57.2,53.6,88,29.81,10.0,SE,8.1,-,N/A,,Overcast,130,2013-01-10 21:15:00
3:35 PM,57.2,53.6,88,29.81,10.0,SSE,6.9,-,N/A,,Overcast,150,2013-01-10 21:35:00
3:55 PM,57.2,53.6,88,29.81,10.0,SSE,8.1,-,N/A,,Overcast,150,2013-01-10 21:55:00
4:35 PM,55.4,51.8,88,29.83,10.0,SW,12.7,18.4,0.02,,Overcast,230,2013-01-10 22:35:00
4:55 PM,55.4,51.8,88,29.83,9.0,WSW,8.1,-,0.03,,Mostly Cloudy,240,2013-01-10 22:55:00
5:15 PM,55.4,51.8,88,29.84,10.0,WSW,6.9,-,N/A,,Mostly Cloudy,240,2013-01-10 23:15:00
5:55 PM,53.6,51.8,94,29.85,10.0,WSW,4.6,-,N/A,,Mostly Cloudy,250,2013-01-10 23:55:00
6:15 PM,53.6,51.8,94,29.85,6.0,WSW,4.6,-,N/A,,Overcast,240,2013-01-11 00:15:00
6:35 PM,53.6,50.0,88,29.85,10.0,SW,9.2,-,0.01,,Mostly Cloudy,230,2013-01-11 00:35:00
6:55 PM,53.6,48.2,82,29.84,10.0,SW,6.9,-,0.01,,Mostly Cloudy,220,2013-01-11 00:55:00
7:15 PM,51.8,48.2,88,29.83,10.0,SW,4.6,-,N/A,,Partly Cloudy,230,2013-01-11 01:15:00
7:35 PM,51.8,46.4,82,29.84,10.0,SW,8.1,-,N/A,,Clear,220,2013-01-11 01:35:00
7:55 PM,51.8,46.4,82,29.85,10.0,SSW,8.1,-,N/A,,Partly Cloudy,210,2013-01-11 01:55:00
8:15 PM,51.8,46.4,82,29.85,10.0,SSW,6.9,-,N/A,,Scattered Clouds,200,2013-01-11 02:15:00
8:56 PM,51.8,46.4,82,29.86,10.0,SSW,11.5,-,N/A,,Overcast,210,2013-01-11 02:56:00
9:15 PM,51.8,46.4,82,29.86,10.0,SSW,11.5,-,N/A,,Mostly Cloudy,210,2013-01-11 03:15:00
9:35 PM,51.8,44.6,76,29.86,10.0,SSW,13.8,-,N/A,,Overcast,210,2013-01-11 03:35:00
9:55 PM,51.8,44.6,76,29.85,10.0,SSW,11.5,-,N/A,,Overcast,210,2013-01-11 03:55:00
10:35 PM,50.0,44.6,82,29.85,10.0,SW,10.4,-,N/A,,Mostly Cloudy,220,2013-01-11 04:35:00
10:55 PM,48.2,44.6,87,29.86,10.0,SW,10.4,-,N/A,,Mostly Cloudy,220,2013-01-11 04:55:00
11:15 PM,50.0,44.6,82,29.86,10.0,SSW,16.1,20.7,N/A,,Overcast,210,2013-01-11 05:15:00
11:55 PM,50.0,44.6,82,29.86,10.0,SSW,11.5,-,N/A,,Overcast,210,2013-01-11 05:55:00